Vertical_Velocity
1 -4 -1 -4 -3 -4 -1 -6 -8 -4 -5 -21 0 -1 2 2 -1 -4 -0 0 1 1 -0 0 0 2 0 2 9 1 -2 1 -1 0 -2 -2 -1 3 1 3 0 0 -1 7
1 -3 -2 -6 -5 -4 -4 -5 -4 2 1 -4 -1 -2 -1 1 -2 0 -1 0 1 -0 1 -1 0 -0 -3 -2 2 5 -1 -3 -2 -8 -6 -5 -1 -2 0 0 -0 2 -4 5
-2 -1 -3 -3 -3 -2 -3 -3 -6 -4 -11 1 -2 -0 -1 -3 -0 -0 0 0 -1 -1 -1 -0 -2 -2 -4 -2 4 1 -5 -1 -3 -2 -5 1 -3 -3 -1 0 -2 1 4 3
-2 -1 -1 -4 -3 -2 -4 -3 1 1 -3 -4 -1 -0 1 -0 -2 -0 -0 -3 1 3 0 -1 -0 -1 -4 -5 -1 -3 -5 -2 -4 2 0 -4 3 2 0 -6 3 -2 4 -1
-1 -2 -2 -5 -4 -2 -12 -4 -4 -1 -1 1 -2 -2 -1 1 -3 3 -3 1 -1 1 0 -2 -1 2 0 3 -9 -0 -2 -0 -2 4 2 -3 -2 0 -0 -0 -0 -2 -2 3
-1 -3 -1 -3 -3 -2 -5 -2 -0 -1 1 -1 -4 -1 -2 -2 2 -5 2 2 2 0 -2 3 1 1 1 0 2 0 0 0 1 0 0 -0 -11 7 2 2 -0 2 -1 6
-1 -3 -3 -3 -3 -5 -4 -3 -1 -2 -1 -1 0 -0 2 1 0 -0 -4 2 2 -4 4 3 1 1 1 1 1 1 0 0 -0 -1 -3 -8 -2 1 -1 -3 3 -0 -2 0
-1 -3 -3 -2 -4 -4 -2 -2 -1 -2 -1 1 -1 -2 1 -1 0 0 1 -1 7 4 2 -5 -4 -5 -6 -2 1 -1 -1 -1 -3 -6 -0 -0 2 -0 0 1 6 2 2 -1
-1 -2 -2 -1 -2 -2 -2 -2 -1 -1 -9 -5 -0 -0 1 0 -0 -5 -2 -2 1 1 0 -2 -1 -0 -1 -5 -10 -1 -3 -2 -7 -2 -3 -0 -4 -1 1 1 5 1 0 1
-1 -2 -2 -1 -2 -3 -3 -2 -1 -1 -6 -2 -1 -1 -1 1 0 -1 -2 -6 -9 0 -0 -1 -1 -2 -2 -4 -0 -2 -3 -3 -2 -0 -0 -5 -2 -1 1 2 3 0 2 2
-2 -2 -2 -1 -2 -2 -2 -1 -1 -0 -2 -1 -1 -1 -1 -0 0 -2 -6 -8 -9 -5 -6 -2 -0 -1 -3 -3 -1 -1 -0 -3 -0 -2 -2 -5 1 -4 -15 -5 -0 -1 -2 -0
-1 -2 -0 0 -1 -2 -1 -1 -1 -0 -2 -2 -0 -0 1 1 2 2 2 -0 1 1 -4 -3 -2 -1 -2 -2 -2 -2 -6 -6 -4 -6 -1 0 0 -1 -2 -2 -2 -2 -1 0
-1 -1 0 1 -1 -2 -2 -1 -1 -1 -2 0 0 1 -0 -1 1 1 -1 0 1 1 0 -1 -1 -3 -1 -1 -3 -1 -3 1 -1 -6 -3 -1 -0 -1 -1 0 -0 -2 -1 -1
0 -0 0 -1 -1 -2 -1 0 -0 -3 -2 -2 0 1 -0 -1 2 2 1 3 1 1 1 -0 -1 -2 0 -2 -6 -3 -4 -2 -2 -4 -3 -1 -2 -1 -0 1 1 1 1 -1
-0 -0 1 0 -2 -1 -1 0 -0 -2 -2 -2 0 1 1 1 1 1 1 1 0 1 -1 -2 -3 0 -2 0 -3 -1 -1 -6 -5 -7 -1 -2 -1 -1 2 0 1 1 -0 1
1 0 1 -0 -1 -2 -0 -0 0 -1 0 -2 -3 1 1 -0 -0 1 1 -1 -2 0 -1 -0 -0 0 -1 -3 -1 -2 0 -1 -0 -1 0 -1 2 1 0 -1 1 2 1 -1
0 0 1 -0 0 -1 -2 0 0 -1 0 -1 -0 -0 0 -2 -0 -0 -1 -0 -1 -0 -1 -1 -0 -0 -0 -1 -1 -2 -0 1 -1 1 1 -1 -1 -2 0 -0 1 -1 -0 1
1 1 1 1 0 -1 -1 -0 0 0 0 -0 -3 -4 -1 -3 -3 -2 -1 0 1 -0 0 1 -0 2 0 -3 -4 -1 -1 -1 -0 1 -1 -0 -0 0 1 -1 -1 -1 -1 1
-0 -0 1 0 -1 -1 -1 -1 -1 -0 -0 -2 -2 -2 -4 0 -1 -0 2 0 -3 0 -1 -0 1 -2 -3 -8 -2 -1 0 -2 -1 1 0 0 -1 -0 0 -1 1 -2 -2 0
1 1 1 0 -1 -1 0 1 -1 0 -1 -2 -3 -0 -4 -2 -1 -1 -0 0 -0 -2 -5 0 -2 -4 -3 -2 -2 -1 -0 0 -1 -2 -2 -0 1 2 1 1 2 2 -2 -3
1 0 -0 1 -0 -1 0 -1 -2 -1 -3 -1 -0 -1 -1 -0 -3 -1 -0 -2 -0 -3 -7 -6 -1 -4 -4 -2 -2 1 -0 -1 -1 -1 -1 -0 -1 -2 -3 -3 1 2 3 1
1 0 -1 0 -1 -1 -3 -2 -1 -3 -4 -0 -1 0 0 0 1 -1 0 -1 -4 -3 1 -5 -1 -9 1 -1 -0 -0 1 1 -1 1 -1 1 -1 1 -0 -1 -3 -2 -0 1
0 -1 -0 -1 -1 -8 -5 -2 -6 -3 -1 -1 -0 -1 0 1 1 -1 -3 -4 -4 1 -5 -3 -7 -0 1 1 0 -0 2 0 1 0 1 1 -1 1 0 -2 1 0 -0 -0
-0 -1 -5 -6 -5 -2 -3 -2 -2 -0 0 -0 -0 -0 -1 0 -1 0 -4 -5 -3 -3 -2 -6 -4 0 -2 -1 3 -0 -3 3 1 1 2 1 0 0 1 1 -0 -2 -3 -1
-1 -0 -3 -1 -0 -0 -0 -0 -0 -0 -0 0 0 -0 0 -0 -3 -0 -4 -7 -2 -4 -7 -4 1 -0 0 -3 -1 1 1 1 0 2 0 1 2 2 -1 1 -0 -0 0 -0
-1 -0 -2 -0 0 0 -0 -0 -0 0 0 1 -0 -1 -3 -2 -2 -2 -3 -3 -4 -8 -4 -0 -2 -2 -1 -2 -1 1 1 1 0 1 -0 1 3 1 -1 -1 -1 1 1 -1
-1 -1 -0 -0 0 -0 -0 -1 -0 0 0 -1 -1 -2 -8 0 -2 -1 -2 -5 -6 -3 -1 2 -1 -2 -2 -1 0 -0 -0 -0 0 0 3 2 1 0 -1 -1 1 -1 -1 -1
Height
1532 1528 1525 1522 1518 1514 1512 1511 1514 1510 1505 1505 1513 1520 1519 1518 1515 1514 1511 1510 1508 1505 1503 1502 1497 1496 1492 1487 1482 1475 1469 1465 1474 1477 1476 1476 1476 1479 1472 1455 1435 1450 1457 1493
1534 1530 1526 1523 1519 1515 1513 1514 1516 1515 1507 1520 1523 1521 1520 1518 1517 1515 1512 1511 1510 1507 1505 1505 1498 1495 1491 1488 1482 1476 1472 1477 1485 1482 1479 1477 1482 1480 1471 1468 1459 1481 1460 1496
1536 1532 1528 1525 1521 1517 1516 1517 1520 1519 1517 1522 1525 1528 1524 1521 1517 1515 1514 1512 1510 1508 1505 1503 1504 1497 1491 1489 1484 1478 1476 1484 1483 1500 1507 1497 1493 1483 1474 1467 1466 1489 1490 1494
1538 1534 1530 1527 1523 1519 1517 1519 1527 1527 1531 1526 1528 1528 1526 1523 1520 1516 1514 1511 1511 1510 1512 1506 1503 1499 1494 1489 1487 1483 1484 1498 1494 1495 1494 1491 1494 1491 1487 1481 1484 1483 1502 1501
1540 1536 1532 1529 1526 1522 1519 1523 1526 1529 1530 1530 1529 1529 1528 1526 1521 1519 1514 1514 1510 1508 1510 1508 1504 1502 1499 1499 1492 1491 1489 1497 1492 1496 1493 1490 1497 1497 1496 1494 1496 1496 1500 1506
1542 1538 1535 1531 1528 1524 1523 1525 1526 1527 1533 1532 1534 1535 1530 1525 1523 1516 1514 1513 1510 1507 1504 1503 1499 1498 1499 1499 1500 1497 1494 1491 1489 1488 1489 1485 1503 1508 1509 1508 1505 1504 1507 1513
1544 1540 1537 1534 1530 1528 1527 1526 1527 1527 1537 1534 1533 1532 1530 1525 1522 1522 1514 1512 1510 1505 1501 1497 1495 1495 1496 1498 1499 1498 1498 1494 1490 1498 1495 1529 1515 1514 1512 1514 1515 1514 1513 1514
1546 1543 1540 1537 1534 1531 1530 1527 1527 1527 1537 1535 1532 1530 1528 1522 1519 1518 1515 1512 1509 1504 1498 1501 1504 1502 1498 1499 1499 1499 1499 1506 1516 1523 1517 1514 1511 1517 1518 1517 1522 1522 1520 1518
1547 1545 1543 1540 1537 1534 1532 1530 1528 1528 1530 1537 1533 1532 1530 1530 1525 1517 1513 1510 1506 1503 1500 1504 1518 1519 1520 1511 1503 1500 1499 1501 1507 1514 1523 1511 1522 1514 1515 1515 1514 1523 1522 1520
1548 1546 1544 1542 1539 1537 1535 1532 1530 1529 1531 1535 1534 1533 1533 1531 1528 1527 1518 1514 1508 1506 1508 1512 1522 1525 1520 1527 1526 1521 1515 1516 1524 1512 1527 1524 1518 1514 1511 1509 1520 1515 1515 1515
1548 1547 1545 1543 1541 1539 1537 1534 1532 1531 1531 1534 1534 1534 1533 1530 1529 1531 1521 1518 1516 1515 1522 1523 1524 1525 1533 1531 1532 1534 1532 1538 1528 1516 1522 1531 1518 1515 1521 1522 1518 1517 1515 1514
1548 1547 1546 1544 1542 1540 1537 1535 1533 1531 1532 1534 1534 1534 1534 1532 1530 1528 1525 1527 1524 1523 1526 1529 1529 1524 1531 1542 1535 1529 1529 1532 1534 1531 1521 1521 1520 1520 1521 1521 1521 1519 1518 1516
1547 1547 1545 1544 1542 1540 1538 1535 1534 1532 1532 1534 1534 1534 1534 1533 1531 1530 1529 1527 1526 1525 1524 1524 1527 1533 1528 1535 1534 1532 1527 1526 1529 1528 1523 1521 1520 1520 1520 1520 1520 1519 1518 1517
1546 1545 1544 1543 1541 1539 1537 1535 1534 1533 1532 1533 1535 1534 1534 1533 1531 1530 1528 1527 1524 1524 1524 1523 1527 1527 1527 1533 1531 1533 1529 1527 1531 1530 1522 1520 1519 1519 1519 1518 1518 1517 1516 1514
1545 1544 1543 1542 1540 1538 1536 1535 1534 1533 1535 1533 1534 1534 1534 1533 1531 1529 1529 1527 1525 1524 1524 1525 1531 1527 1528 1528 1529 1532 1523 1525 1532 1530 1520 1520 1519 1518 1518 1517 1516 1514 1513 1512
1543 1543 1542 1541 1540 1538 1536 1535 1535 1534 1532 1532 1533 1534 1533 1532 1531 1530 1529 1527 1526 1525 1526 1527 1528 1528 1529 1538 1542 1522 1520 1520 1520 1519 1519 1518 1517 1516 1515 1514 1514 1512 1511 1510
1542 1541 1540 1539 1538 1537 1538 1539 1537 1533 1532 1532 1533 1533 1533 1532 1531 1530 1529 1528 1526 1526 1526 1527 1528 1528 1529 1534 1540 1520 1519 1518 1518 1517 1516 1515 1515 1514 1513 1512 1511 1510 1509 1508
1541 1540 1539 1537 1536 1536 1536 1536 1535 1533 1533 1532 1534 1534 1532 1532 1531 1530 1529 1528 1527 1527 1527 1528 1527 1528 1527 1534 1521 1519 1517 1516 1515 1515 1514 1513 1512 1511 1511 1509 1508 1507 1506 1505
1539 1538 1537 1536 1537 1536 1536 1534 1534 1533 1536 1532 1534 1542 1541 1533 1533 1532 1530 1529 1530 1529 1528 1528 1529 1530 1534 1520 1518 1516 1515 1514 1514 1513 1511 1510 1509 1508 1507 1506 1505 1504 1502 1501
1538 1537 1537 1535 1536 1535 1535 1534 1534 1533 1534 1534 1536 1539 1538 1538 1534 1532 1532 1531 1532 1537 1532 1528 1530 1529 1517 1516 1516 1514 1513 1512 1511 1510 1508 1507 1506 1505 1503 1502 1501 1499 1497 1496
1538 1536 1536 1536 1535 1535 1534 1533 1534 1535 1538 1537 1538 1539 1538 1537 1537 1536 1536 1536 1534 1545 1535 1534 1535 1530 1514 1514 1513 1512 1510 1509 1508 1507 1505 1505 1503 1501 1498 1496 1495 1493 1491 1489
1537 1536 1536 1535 1535 1534 1535 1540 1538 1537 1541 1538 1538 1538 1537 1537 1536 1535 1536 1539 1539 1543 1534 1537 1539 1517 1512 1512 1510 1508 1507 1505 1504 1503 1501 1500 1499 1497 1495 1492 1489 1487 1485 1483
1536 1536 1536 1536 1537 1538 1541 1549 1542 1541 1537 1538 1537 1538 1537 1537 1536 1536 1537 1544 1544 1536 1545 1540 1524 1513 1513 1510 1507 1504 1503 1501 1499 1498 1497 1496 1494 1492 1490 1487 1485 1482 1479 1478
1536 1536 1538 1539 1543 1540 1538 1538 1537 1537 1535 1536 1535 1536 1536 1536 1536 1537 1544 1541 1540 1550 1552 1536 1517 1513 1510 1507 1504 1501 1498 1496 1494 1492 1491 1490 1489 1487 1486 1483 1480 1477 1475 1473
1536 1536 1538 1538 1534 1534 1534 1535 1535 1535 1535 1534 1534 1535 1537 1536 1538 1537 1541 1545 1547 1538 1532 1519 1512 1509 1507 1503 1500 1496 1493 1491 1489 1487 1486 1485 1484 1482 1480 1478 1476 1473 1471 1469
1535 1534 1534 1533 1533 1532 1532 1532 1533 1533 1533 1533 1534 1535 1539 1540 1539 1542 1543 1545 1541 1523 1514 1511 1509 1506 1503 1499 1496 1493 1490 1487 1485 1483 1481 1480 1478 1477 1475 1473 1471 1469 1467 1465
1533 1531 1530 1531 1530 1530 1530 1531 1531 1532 1533 1532 1533 1539 1536 1538 1545 1541 1533 1529 1513 1509 1508 1507 1505 1502 1499 1496 1492 1489 1486 1483 1481 1479 1478 1477 1475 1473 1471 1468 1467 1465 1463 1460